Weather in Shurabad

Uzbekistan     39°43′58″N   64°30′27″E
temp.,
°C
wind,
m/s
gust,
m/s
humid.,
%
clouds,
%
prec.,
mm/h
press.,
hPa
HPBL,
m
7 may, fri
fri723:00+23se334870 0.0 1015134
02:00+22se224536 0.0 101450
05:00+21ese2350100 0.0 101436
08:00+23se224310 0.0 1015239
11:00+26se1130100 0.0 10151123
14:00+29s112296 0.0 10142074
17:00+30n002198 0.0 10122225
20:00+29nne2221100 0.0 1013609
8 may, sat
sat823:00+28ne332432 0.0 101271
02:00+26ne2227100 0.0 101226
05:00+24ne22325 0.0 101226
08:00+27nne11272 0.0 1014185
11:00+30nnw122211 0.0 10141582
14:00+33nw231915 0.0 10122809
17:00+34nw3317100 0.0 10113489
20:00+30nnw101023100 0.0 1011904
9 may, sun
sun923:00+25n111322100 0.0 1013822
02:00+24n81031100 0.0 1012629
05:00+22n7946100 0.0 1013527
08:00+23n774198 0.0 1014563
11:00+26n5535100 0.0 10141101
14:00+29n6628100 0.0 10131468
17:00+29nne8826100 0.0 10111375
20:00+27nne892895 0.0 10111002
10 may, mon
mon1023:00+25nne912305 0.0 1010411
02:00+24nne61032100 0.0 1009323
05:00+23nne71034100 0.0 1008261
08:00+24nne91227100 0.0 1009499
11:00+29ne892348 0.0 1009782
14:00+32nne76187 0.0 10081979
17:00+32n861938 0.0 10082202
20:00+28nne9102089 0.0 1010969
11 may, tue
tue1123:00+26nne9131552 0.0 1011775
02:00+23nne1016193 0.0 1011695
05:00+21nne815222 0.0 1012467
08:00+23nne913210 0.0 1014837
11:00+28nne910140 0.0 10141570
14:00+31nne910110 0.0 10132164
17:00+31nne1010110 0.0 10122294
20:00+28nne811160 0.0 1013990